When you browse on this site, cookies collect data to enhance your experience and personalize the content and advertising you see.
Visit our Privacy Policy to learn more. By continuing to use the site, you agree to this use of cookies and data.
  • en France
  • Liste des pays
  • À 7 jours
  • Température de l'eau
  • Carte satellitaire
  • Carte météo
  • Widgets météo
  • user-avatar
    Se connecter

    Météo par heure à Dobritch

    Ce jour, 22 Mars, Vendredi

    Heure Température Précipitation Vent Pression Humidité
    00:00 +6°C° 0 mm 1 m/s 750 mmHg 68%
    01:00 +5°C° 0 mm 2 m/s 750 mmHg 69%
    02:00 +5°C° 0 mm 2 m/s 749 mmHg 69%
    03:00 +5°C° 0 mm 2 m/s 749 mmHg 72%
    04:00 +4°C° 0 mm 3 m/s 749 mmHg 75%
    05:00 +3°C° 0 mm 3 m/s 749 mmHg 77%
    06:00 +4°C° 0 mm 3 m/s 749 mmHg 75%
    07:00 +5°C° 0 mm 3 m/s 749 mmHg 73%
    08:00 +6°C° 0 mm 4 m/s 749 mmHg 70%
    09:00 +8°C° 0 mm 4 m/s 749 mmHg 63%
    10:00 +10°C° 0 mm 4 m/s 749 mmHg 57%
    11:00 +12°C° 0 mm 4 m/s 749 mmHg 50%
    12:00 +13°C° 0 mm 4 m/s 749 mmHg 49%
    13:00 +13°C° 0 mm 4 m/s 749 mmHg 48%
    14:00 +14°C° 0 mm 4 m/s 748 mmHg 47%
    15:00 +13°C° 0 mm 4 m/s 748 mmHg 48%
    16:00 +13°C° 0 mm 3 m/s 747 mmHg 50%
    17:00 +13°C° 0 mm 3 m/s 747 mmHg 51%
    18:00 +12°C° 0 mm 2 m/s 747 mmHg 55%
    19:00 +10°C° 0 mm 2 m/s 746 mmHg 59%
    20:00 +10°C° 0 mm 1 m/s 746 mmHg 63%
    21:00 +9°C° 0 mm 2 m/s 746 mmHg 62%
    22:00 +8°C° 0 mm 2 m/s 746 mmHg 61%
    23:00 +8°C° 0 mm 2 m/s 746 mmHg 60%

    Demain, 23 Mars, Samedi

    Heure Température Précipitation Vent Pression Humidité
    00:00 +8°C° 0 mm 3 m/s 746 mmHg 62%
    01:00 +8°C° 0 mm 3 m/s 746 mmHg 64%
    02:00 +7°C° 0 mm 4 m/s 746 mmHg 66%
    03:00 +8°C° 0 mm 3 m/s 746 mmHg 72%
    04:00 +7°C° 0 mm 3 m/s 745 mmHg 79%
    05:00 +7°C° 0 mm 3 m/s 745 mmHg 85%
    06:00 +6°C° 0 mm 4 m/s 745 mmHg 79%
    07:00 +7°C° 0 mm 4 m/s 746 mmHg 73%
    08:00 +8°C° 0 mm 5 m/s 746 mmHg 67%
    09:00 +8°C° 0 mm 5 m/s 746 mmHg 64%
    10:00 +8°C° 0 mm 5 m/s 746 mmHg 61%
    11:00 +8°C° 0 mm 5 m/s 746 mmHg 57%
    12:00 +8°C° 0 mm 5 m/s 746 mmHg 53%
    13:00 +8°C° 0 mm 5 m/s 746 mmHg 49%
    14:00 +9°C° 0 mm 5 m/s 745 mmHg 45%
    15:00 +9°C° 0 mm 5 m/s 745 mmHg 40%
    16:00 +9°C° 0 mm 5 m/s 745 mmHg 35%
    17:00 +9°C° 0 mm 5 m/s 745 mmHg 30%
    18:00 +8°C° 0 mm 4 m/s 745 mmHg 33%
    19:00 +7°C° 0 mm 3 m/s 745 mmHg 37%
    20:00 +5°C° 0 mm 2 m/s 745 mmHg 40%
    21:00 +5°C° 0 mm 2 m/s 745 mmHg 42%
    22:00 +4°C° 0 mm 2 m/s 746 mmHg 44%
    23:00 +4°C° 0 mm 2 m/s 746 mmHg 46%

    Après-demain, 24 Mars, Dimanche

    Heure Température Précipitation Vent Pression Humidité
    00:00 +3°C° 0 mm 2 m/s 745 mmHg 47%
    01:00 +3°C° 0 mm 2 m/s 745 mmHg 49%
    02:00 +3°C° 0 mm 2 m/s 745 mmHg 50%
    03:00 +2°C° 0 mm 2 m/s 745 mmHg 51%
    04:00 +2°C° 0 mm 2 m/s 745 mmHg 51%
    05:00 +2°C° 0 mm 2 m/s 744 mmHg 52%
    06:00 +2°C° 0 mm 3 m/s 745 mmHg 52%
    07:00 +3°C° 0 mm 3 m/s 745 mmHg 52%
    08:00 +4°C° 0 mm 3 m/s 745 mmHg 53%
    09:00 +5°C° 0 mm 3 m/s 745 mmHg 49%
    10:00 +7°C° 0 mm 4 m/s 745 mmHg 45%
    11:00 +8°C° 0 mm 4 m/s 745 mmHg 41%
    12:00 +10°C° 0 mm 4 m/s 745 mmHg 39%
    13:00 +11°C° 0 mm 4 m/s 745 mmHg 38%
    14:00 +12°C° 0 mm 3 m/s 744 mmHg 36%
    15:00 +11°C° 0 mm 3 m/s 744 mmHg 37%
    16:00 +11°C° 0 mm 3 m/s 743 mmHg 39%
    17:00 +12°C° 0 mm 2 m/s 743 mmHg 41%
    18:00 +9°C° 0 mm 2 m/s 743 mmHg 49%
    19:00 +7°C° 0 mm 2 m/s 743 mmHg 57%
    20:00 +5°C° 0 mm 2 m/s 743 mmHg 65%
    21:00 +5°C° 0 mm 2 m/s 743 mmHg 68%
    22:00 +4°C° 0 mm 2 m/s 742 mmHg 71%
    23:00 +4°C° 0 mm 2 m/s 742 mmHg 74%

    25 Mars, Lundi

    Heure Température Précipitation Vent Pression Humidité
    00:00 +4°C° 0 mm 2 m/s 742 mmHg 73%
    01:00 +4°C° 0 mm 2 m/s 742 mmHg 71%
    02:00 +4°C° 0 mm 2 m/s 741 mmHg 70%
    03:00 +4°C° 0 mm 2 m/s 741 mmHg 70%
    04:00 +4°C° 0 mm 2 m/s 741 mmHg 69%
    05:00 +4°C° 0 mm 2 m/s 740 mmHg 68%
    06:00 +5°C° 0 mm 2 m/s 740 mmHg 65%
    07:00 +5°C° 0 mm 3 m/s 740 mmHg 62%
    08:00 +7°C° 0 mm 3 m/s 740 mmHg 59%
    09:00 +10°C° 0 mm 3 m/s 740 mmHg 53%
    10:00 +12°C° 0 mm 3 m/s 740 mmHg 47%
    11:00 +14°C° 0 mm 3 m/s 740 mmHg 41%
    12:00 +16°C° 0 mm 3 m/s 739 mmHg 40%
    13:00 +17°C° 0 mm 3 m/s 739 mmHg 38%
    14:00 +18°C° 0 mm 3 m/s 738 mmHg 36%
    15:00 +17°C° 0 mm 3 m/s 738 mmHg 41%
    16:00 +16°C° 0 mm 3 m/s 738 mmHg 47%
    17:00 +16°C° 0 mm 3 m/s 737 mmHg 52%
    18:00 +13°C° 0 mm 3 m/s 737 mmHg 58%
    19:00 +11°C° 0 mm 3 m/s 737 mmHg 64%
    20:00 +10°C° 0 mm 3 m/s 737 mmHg 71%
    21:00 +9°C° 0.1 mm 3 m/s 737 mmHg 72%
    22:00 +9°C° 0.1 mm 3 m/s 737 mmHg 73%
    23:00 +9°C° 0.1 mm 3 m/s 737 mmHg 75%

    26 Mars, Mardi

    Heure Température Précipitation Vent Pression Humidité
    00:00 +8°C° 0 mm 3 m/s 737 mmHg 79%
    01:00 +7°C° 0 mm 2 m/s 737 mmHg 84%
    02:00 +6°C° 0 mm 2 m/s 737 mmHg 88%
    03:00 +6°C° 0 mm 2 m/s 736 mmHg 90%
    04:00 +7°C° 0 mm 1 m/s 736 mmHg 91%
    05:00 +7°C° 0 mm 1 m/s 736 mmHg 92%
    06:00 +8°C° 0 mm 1 m/s 736 mmHg 89%
    07:00 +8°C° 0 mm 1 m/s 737 mmHg 86%
    08:00 +8°C° 0 mm 2 m/s 737 mmHg 82%
    09:00 +9°C° 0.1 mm 2 m/s 737 mmHg 78%
    10:00 +10°C° 0.1 mm 2 m/s 738 mmHg 75%
    11:00 +11°C° 0.1 mm 3 m/s 738 mmHg 71%
    12:00 +10°C° 2.1 mm 4 m/s 738 mmHg 77%
    13:00 +7°C° 2.1 mm 4 m/s 738 mmHg 84%
    14:00 +6°C° 2.1 mm 5 m/s 738 mmHg 90%
    15:00 +5°C° 0.7 mm 6 m/s 738 mmHg 87%
    16:00 +4°C° 0.7 mm 7 m/s 739 mmHg 84%
    17:00 +4°C° 0.7 mm 8 m/s 739 mmHg 80%
    18:00 +4°C° 0.1 mm 7 m/s 739 mmHg 81%
    19:00 +4°C° 0.1 mm 7 m/s 740 mmHg 83%
    20:00 +4°C° 0.1 mm 6 m/s 740 mmHg 84%
    21:00 +4°C° 0 mm 6 m/s 740 mmHg 86%
    22:00 +5°C° 0 mm 5 m/s 741 mmHg 87%
    23:00 +3°C° 0 mm 5 m/s 741 mmHg 89%

    27 Mars, Mercredi

    Heure Température Précipitation Vent Pression Humidité
    00:00 +5°C° 0.1 mm 5 m/s 741 mmHg 90%
    01:00 +5°C° 0.1 mm 5 m/s 741 mmHg 91%
    02:00 +5°C° 0.1 mm 5 m/s 742 mmHg 92%
    03:00 +5°C° 0.1 mm 5 m/s 742 mmHg 92%
    04:00 +5°C° 0.1 mm 5 m/s 742 mmHg 92%
    05:00 +3°C° 0.1 mm 5 m/s 742 mmHg 92%
    06:00 +3°C° 0.2 mm 6 m/s 743 mmHg 92%
    07:00 +3°C° 0.2 mm 6 m/s 743 mmHg 91%
    08:00 +3°C° 0.2 mm 6 m/s 744 mmHg 90%
    09:00 +3°C° 0.2 mm 6 m/s 744 mmHg 89%
    10:00 +4°C° 0.2 mm 6 m/s 744 mmHg 87%
    11:00 +4°C° 0.2 mm 6 m/s 745 mmHg 86%
    12:00 +4°C° 0.3 mm 6 m/s 745 mmHg 86%
    13:00 +4°C° 0.3 mm 6 m/s 745 mmHg 86%
    14:00 +6°C° 0.3 mm 5 m/s 745 mmHg 87%
    15:00 +4°C° 0.3 mm 6 m/s 745 mmHg 87%
    16:00 +4°C° 0.3 mm 6 m/s 745 mmHg 87%
    17:00 +4°C° 0.3 mm 7 m/s 745 mmHg 87%
    18:00 +4°C° 0.1 mm 6 m/s 746 mmHg 86%
    19:00 +3°C° 0.1 mm 5 m/s 746 mmHg 85%
    20:00 +3°C° 0.1 mm 5 m/s 746 mmHg 85%
    21:00 +4°C° 0.1 mm 4 m/s 746 mmHg 84%
    22:00 +3°C° 0.1 mm 4 m/s 746 mmHg 83%
    23:00 +3°C° 0.1 mm 4 m/s 746 mmHg 83%
    Voir plus